Flag for France Weather past 2 weeks in Rodez, France

Now
59 °F

Sunny.


Feels Like: 59 °F
Forecast: 57 / 74 °F
Wind: 2 mph from North

Location: Rodez Airport

Current Time: Jul 31, 2015 at 10:19:21 AM

Latest Report: Jul 31, 2015 at 10:00 AM


Visibility: 10 mi

Pressure: 29.98 "Hg (27.78 "Hg at 642m altitude)

Humidity: 59%

Dew point: 45 °F

Location of RodezLocation

Historic Weather in Rodez — Graph

°F

Rodez temperature yesterday

Maximum temperature yesterday: 70 °F (at 6:00 PM)
Minimum temperature yesterday: 54 °F (at 7:00 AM)
Average temperature yesterday: 62 °F

Past Weeks' High & Low Weather Summary

 TemperatureHumidityPressure
High97 °F (Jul 17, 5:00 PM)100% (Jul 19, 3:00 AM)30.18 "Hg (Jul 19, 3:00 AM)
Low45 °F (Jul 31, 5:00 AM)18% (Jul 16, 5:00 PM)29.83 "Hg (Jul 24, 5:00 PM)
Average70 °F64%30.04 "Hg
* Reported Jul 16 9:00 AM — Jul 31 9:00 AM, Rodez, Weather by CustomWeather, © 2015

Note: Actual official high and low records may vary slightly from our data, if they occured in-between our weather recording intervals... More about our weather records

Advertising

Rodez weather history for previous 24 hours

 ConditionsComfort  
Time TempWeatherWind HumidityBarometerVisibility
9:00 AM
Fri, Jul 31
55 °FSunny.No wind72%29.98 "Hg10 mi
8:30 AM55 °FSunny.3 mph82%29.98 "Hg10 mi
8:00 AM54 °FSunny.2 mph88%29.95 "Hg10 mi
7:30 AM48 °FClear.1 mph100%29.98 "Hg10 mi
7:00 AM46 °FClear.2 mph100%29.95 "Hg6 mi
6:30 AM46 °FClear.No wind93%29.95 "Hg4 mi
6:00 AM45 °FFog.2 mph100%29.95 "Hg3 mi
5:30 AM46 °FFog.No wind93%29.95 "Hg3 mi
5:00 AM45 °FFog.5 mph93%29.98 "Hg1 mi
4:30 AM48 °FClear.5 mph94%29.98 "Hg6 mi
4:00 AM46 °FClear.No wind93%29.98 "Hg10 mi
3:30 AM48 °FClear.No wind87%30.01 "Hg10 mi
3:00 AM50 °FClear.No wind88%30.01 "Hg10 mi
2:30 AM48 °FClear.2 mph82%30.01 "Hg10 mi
2:00 AM48 °FClear.1 mph82%30.01 "Hg10 mi
1:30 AM52 °FClear.2 mph77%30.04 "Hg10 mi
1:00 AM54 °FClear.No wind67%30.04 "Hg10 mi
12:30 AM55 °FClear.No wind63%30.04 "Hg10 mi
12:00 AM59 °FClear.2 mph55%30.04 "Hg10 mi
11:30 PM
Thu, Jul 30
61 °FClear.8 mph52%30.04 "Hg10 mi
11:00 PM63 °FClear.3 mph49%30.04 "Hg10 mi
10:30 PM61 °FClear.3 mph55%30.04 "Hg10 mi
10:00 PM61 °FPassing clouds.6 mph55%30.04 "HgN/A
9:30 PM61 °FSunny.7 mph55%30.01 "Hg10 mi
9:00 PM66 °FSunny.6 mph43%30.01 "Hg10 mi
8:30 PM68 °FSunny.8 mph40%30.01 "Hg10 mi
8:00 PM70 °FSunny.8 mph40%30.01 "Hg10 mi
7:30 PM70 °FPassing clouds.8 mph38%30.01 "HgN/A
7:00 PM68 °FPassing clouds.7 mph40%30.01 "HgN/A
6:30 PM70 °FPassing clouds.8 mph40%30.01 "HgN/A
6:00 PM70 °FPassing clouds.6 mph43%30.04 "HgN/A
5:30 PM68 °FPassing clouds.8 mph49%30.04 "HgN/A
5:00 PM68 °FSunny.8 mph49%30.04 "Hg10 mi
4:30 PM66 °FPassing clouds.7 mph52%30.04 "HgN/A
4:00 PM66 °FPassing clouds.7 mph52%30.04 "HgN/A
3:30 PM66 °FPassing clouds.8 mph56%30.04 "HgN/A
3:00 PM66 °FPassing clouds.7 mph49%30.04 "HgN/A
2:30 PM66 °FPassing clouds.5 mph49%30.04 "HgN/A
2:00 PM66 °FPassing clouds.6 mph49%30.04 "HgN/A
1:30 PM64 °FPassing clouds.6 mph49%30.04 "HgN/A
1:00 PM66 °FSunny.5 mph49%30.04 "Hg10 mi
12:30 PM64 °FPassing clouds.5 mph56%30.04 "HgN/A
12:00 PM63 °FPassing clouds.7 mph59%30.04 "HgN/A
11:30 AM64 °FBroken clouds.6 mph60%30.04 "HgN/A
11:00 AM63 °FPassing clouds.5 mph68%30.04 "HgN/A
10:30 AM61 °FPassing clouds.6 mph72%30.04 "HgN/A
10:00 AM59 °FPassing clouds.6 mph77%30.04 "HgN/A
Weather by CustomWeather, © 2015

See weather overviewHow to use our weather pages